Location: Taipo
(41.0000°S, 175.9500°E)
Time: 02:47:16
(UTC+00:00)

Cosmos 1300 - Pass Details

Date: 18 April 2024
Orbit: 467 x 471 km, 82.5° (Epoch: 22 May)

Event Time Altitude Azimuth Distance (km) Brightness Sun altitude
Rises 18:06:51 0° 4° (N) 2,502 6.3 -8.9°
Reaches altitude 10° 18:08:56 10° 9° (N) 1,634 5.5 -8.5°
Maximum altitude 18:12:25 52° 86° (E) 602 3.5 -7.9°
Drops below altitude 10° 18:15:57 10° 162° (SSE) 1,663 5.4 -7.2°
Sets 18:18:06 0° 167° (SSE) 2,551 6.3 -6.8°
